SCP
0 0 0 0 0 0 0 0 0 0 0 0 0 0 0 0 0 0 0 0 0 0 0 0 0 0 0 0 0 0 0 0 0 0 0 0 0 0 0 0 0 0 0 0
-0 0 0 0 0 0 0 0 0 0 0 0 0 -0 0 0 0 0 0 0 0 0 0 0 0 0 0 0 0 0 0 0 0 0 0 0 0 0 0 0 0 0 0 0
0 0 0 0 0 0 0 0 0 0 0 0 -0 -0 -0 -0 -0 0 0 0 0 0 0 0 0 0 0 0 0 0 0 0 0 0 0 0 0 0 0 0 0 0 0 0
0 0 0 0 0 0 0 0 0 0 0 0 0 0 -0 -0 -0 -0 0 0 0 0 0 0 0 0 0 0 0 0 0 0 0 0 0 0 0 0 0 0 0 0 0 0
0 0 0 0 0 0 0 0 0 0 0 0 0 0 0 0 0 -0 0 0 0 0 0 0 0 0 0 0 0 0 0 0 0 0 0 0 0 0 0 0 0 0 0 0
0 0 0 0 0 0 0 0 0 0 0 0 0 0 0 0 0 0 -0 0 0 0 0 0 0 0 0 0 0 0 0 0 0 0 0 0 0 0 0 0 0 0 0 0
0 0 0 0 0 0 0 0 0 0 0 0 0 0 0 0 0 0 0 0 -0 0 0 0 0 0 0 0 0 0 0 0 0 0 0 0 0 0 0 0 0 0 0 0
0 0 0 0 0 0 0 0 0 0 0 0 0 0 0 0 0 0 0 0 0 0 0 0 0 0 0 0 0 0 0 0 0 0 0 0 0 0 0 0 0 0 0 0
0 0 0 0 0 0 0 0 0 0 0 0 0 0 0 0 0 0 0 0 0 0 0 0 0 0 0 0 0 0 0 0 0 0 0 0 0 0 0 0 0 0 0 0
0 0 0 0 0 0 0 0 0 0 0 0 0 0 0 0 0 0 0 0 0 0 0 0 0 0 0 0 0 0 0 0 0 0 0 0 0 0 0 0 0 0 0 0
0 0 0 0 0 0 0 0 0 0 0 0 0 0 0 0 0 0 0 0 0 0 0 0 0 0 0 0 0 0 0 0 0 0 0 0 0 0 0 0 0 0 0 0
0 0 -0 -0 0 0 0 0 0 0 0 0 0 0 0 0 0 0 0 -0 0 0 0 0 0 0 0 0 0 0 0 0 0 0 0 0 0 0 0 0 0 0 0 0
0 0 0 0 0 0 0 0 0 0 0 0 0 0 0 0 0 0 -0 -0 -0 0 0 0 0 0 0 0 0 0 0 0 0 0 0 0 0 0 0 0 0 0 0 0
0 0 0 0 0 0 0 0 0 0 0 0 0 0 0 0 0 0 -0 -0 -0 0 0 0 0 0 0 0 0 0 0 0 0 0 0 0 0 0 0 0 0 0 0 0
0 0 0 0 0 0 0 0 0 0 0 0 0 0 0 0 0 0 0 -0 -0 0 0 0 0 0 0 0 0 0 0 0 0 0 0 0 0 0 0 0 0 0 0 0
0 0 0 0 0 0 0 0 0 0 0 0 -0 -0 0 0 0 0 0 -0 0 0 0 0 0 0 0 0 0 0 0 0 0 0 0 0 0 0 0 0 0 0 0 0
0 0 0 0 0 0 0 0 0 0 0 -0 -0 -0 0 0 0 0 0 -0 0 0 0 0 0 0 0 0 0 0 0 0 0 0 0 0 0 0 0 0 0 0 0 0
0 0 0 -0 0 0 0 0 0 0 0 -0 -0 -0 0 0 0 0 0 0 0 0 0 0 0 0 0 0 0 0 0 0 0 0 0 0 0 0 0 0 0 0 0 0
-0 -0 -0 -0 0 0 0 0 0 0 0 -0 -0 -0 0 0 0 0 0 0 0 0 0 0 0 0 0 0 0 0 0 0 0 0 0 0 0 0 0 0 0 0 0 0
-0 -0 -0 -0 -0 0 0 0 -0 0 0 -0 -0 -0 0 0 0 0 0 0 0 0 0 0 0 0 0 0 0 0 0 0 0 0 0 0 0 0 0 0 0 0 0 0
-0 -0 -0 0 0 0 0 0 0 0 0 -0 -0 -0 -0 0 0 0 0 0 0 0 0 0 0 0 0 0 0 0 0 0 0 0 0 0 0 0 0 0 0 0 0 0
0 0 0 0 0 0 0 0 0 0 0 -0 -0 -0 0 0 0 0 0 0 0 0 0 0 0 0 0 0 0 0 0 0 0 0 0 0 0 0 0 0 0 0 0 0
0 0 0 0 0 0 0 0 0 0 0 0 0 0 0 0 0 0 0 0 0 0 0 0 0 0 0 0 0 0 0 0 0 0 0 0 0 0 0 0 0 0 0 0
0 0 0 0 0 0 0 0 0 0 0 0 0 0 0 0 0 0 0 0 0 0 0 0 0 0 0 0 0 0 0 0 0 0 0 0 0 0 0 0 0 0 0 0
0 0 0 0 0 0 0 0 0 0 0 0 0 0 0 0 0 0 0 0 0 0 0 0 0 0 0 0 0 0 0 0 0 0 0 0 0 0 0 0 0 0 0 0
0 0 0 0 0 0 0 0 0 0 0 0 0 0 0 0 0 0 0 0 0 0 0 0 0 0 0 0 0 0 0 0 0 0 0 0 0 0 0 0 0 0 0 0
0 0 0 0 0 0 0 0 0 0 0 0 0 0 0 0 0 0 0 0 0 0 0 0 0 0 0 0 0 0 0 0 0 0 0 0 0 0 0 0 0 0 0 0
Wind_Speed
4 4 2 3 5 4 6 6 6 6 6 9 5 3 3 3 2 3 2 2 2 2 2 3 3 3 2 2 2 1 1 1 1 1 1 1 1 1 0 0 0 0 0 1
2 2 2 4 6 5 6 5 7 7 9 7 3 1 2 2 2 3 3 3 3 3 3 3 3 3 3 2 2 1 1 1 1 1 1 1 1 1 0 0 0 0 1 1
3 3 2 6 6 6 4 4 5 7 8 3 3 3 3 3 2 3 3 3 3 3 3 3 3 3 3 3 2 1 1 1 1 1 1 1 1 1 0 0 1 1 1 1
1 3 4 6 1 4 4 5 5 5 5 3 4 3 2 2 2 3 3 3 3 3 3 4 4 3 2 2 1 1 1 1 1 1 1 1 1 1 1 0 1 1 2 2
1 2 7 7 2 2 3 5 3 5 5 3 2 2 2 1 1 2 2 2 3 3 3 3 3 3 2 1 1 1 2 2 2 1 1 1 1 2 1 1 1 1 2 2
3 2 6 5 1 1 1 5 2 3 4 2 1 1 4 2 2 2 2 2 2 2 2 3 3 2 1 1 2 2 3 2 2 2 2 2 2 2 1 1 1 1 2 2
3 4 9 5 2 2 3 6 2 1 2 2 3 4 3 2 2 2 2 2 2 2 2 2 3 1 1 2 2 3 3 2 2 2 2 2 1 1 1 1 1 1 2 2
4 4 9 2 3 5 6 2 1 1 1 2 2 2 2 2 2 2 2 2 2 2 2 3 3 2 2 3 3 3 2 2 2 2 2 1 1 1 1 0 0 1 1 2
8 8 4 3 4 3 1 1 2 1 2 1 2 2 2 2 2 2 2 2 2 2 2 3 3 2 2 3 3 2 2 2 3 3 2 2 1 1 1 0 1 1 1 2
5 7 5 4 3 2 2 2 2 2 2 1 2 2 2 2 2 2 2 2 2 2 2 3 3 3 2 3 3 2 2 3 2 2 2 2 1 1 1 1 1 2 2 2
6 5 4 4 4 4 2 2 2 2 1 1 1 2 2 2 2 2 2 2 2 2 3 4 4 3 3 3 2 2 2 2 2 2 2 2 2 2 2 2 2 2 2 2
7 5 5 5 4 3 3 3 2 2 1 1 1 2 1 2 2 2 2 2 2 2 3 4 3 3 3 3 2 2 2 3 2 2 2 2 2 2 3 3 5 5 4 4
5 2 4 4 2 2 3 3 2 2 2 1 1 1 1 2 2 2 2 2 3 3 3 3 3 3 3 3 2 2 2 3 2 2 2 2 2 2 3 3 4 4 5 5
3 1 2 3 3 2 2 2 1 1 1 1 1 1 1 1 2 2 3 3 3 3 3 3 3 4 3 3 2 2 3 3 3 2 2 2 2 2 2 2 3 3 4 5
4 4 4 2 1 1 1 1 1 0 1 1 1 1 1 2 3 3 3 3 3 3 3 3 3 4 3 3 3 3 2 2 2 2 2 2 2 2 2 2 3 3 3 4
3 2 2 2 3 2 1 2 2 2 2 2 2 2 2 3 3 3 3 2 2 3 3 3 4 4 3 3 3 2 2 4 4 2 2 2 2 2 2 2 2 3 3 3
3 3 3 3 4 3 3 4 4 4 3 3 3 3 2 2 2 3 3 3 3 3 3 3 4 4 3 3 2 2 2 3 5 3 2 2 2 2 2 2 3 3 3 4
6 6 5 5 5 4 4 3 3 3 3 3 2 2 2 2 3 4 4 3 3 3 3 3 4 3 3 3 2 2 2 2 2 2 2 2 2 2 2 2 3 3 3 3
4 4 4 4 4 4 4 3 3 3 3 2 2 3 3 3 4 4 3 2 3 4 4 3 6 4 3 4 4 2 2 2 3 2 2 4 3 2 2 2 3 3 3 3
3 3 3 3 3 3 3 3 2 2 2 2 2 2 3 3 3 3 3 3 4 4 4 4 4 3 3 4 4 2 2 2 3 3 3 2 2 2 2 3 3 3 3 3
4 3 3 3 3 3 3 3 3 3 3 3 3 4 4 4 3 3 3 4 4 4 4 5 3 3 3 3 4 2 2 2 3 2 2 2 3 3 3 3 3 3 3 3
3 3 3 3 3 2 2 2 3 3 3 3 3 3 3 3 3 3 4 4 4 5 3 2 2 4 5 5 2 2 2 2 2 2 2 2 3 3 3 3 3 3 3 3
3 3 3 3 3 3 2 2 3 3 4 4 4 4 4 4 3 3 4 3 3 5 3 2 5 7 7 3 2 2 2 2 3 3 3 3 3 3 3 3 3 3 3 3
3 3 3 2 2 2 3 3 3 3 3 3 4 4 4 3 3 3 3 5 6 6 3 4 7 7 6 2 1 2 2 2 3 3 3 3 3 3 3 3 3 3 3 4
3 3 3 3 3 3 4 2 2 2 3 2 3 3 3 3 3 3 2 3 5 5 3 4 7 6 2 1 2 2 2 3 3 3 3 3 3 3 3 3 3 3 4 4
3 3 3 4 4 3 2 2 2 2 2 2 3 2 2 2 3 2 2 3 4 4 3 2 2 3 2 2 2 2 2 3 3 3 3 3 3 3 3 3 4 4 4 4
2 2 2 2 2 3 2 3 3 3 3 3 3 3 2 2 2 2 2 2 2 2 2 2 2 2 2 2 2 2 2 2 3 3 3 3 3 3 4 4 4 4 4 4
Wind_Direction
261 277 250 258 263 217 203 210 220 250 254 273 282 283 292 310 333 357 358 358 348 335 330 335 342 338 329 322 331 331 341 308 282 288 295 316 334 322 20 69 286 253 264 269
294 282 260 278 277 244 234 233 239 263 273 275 282 279 291 305 325 333 329 327 328 330 329 325 326 321 319 315 313 321 314 298 315 319 320 321 322 336 29 21 2 342 277 268
285 315 349 281 251 214 212 221 204 232 252 282 302 285 273 284 298 294 295 309 317 316 310 308 306 300 295 300 309 313 304 313 314 318 307 293 322 337 296 302 338 318 298 287
300 20 250 250 230 192 206 246 229 242 269 267 264 276 270 257 250 277 292 303 307 310 315 316 313 309 304 309 311 312 325 328 315 330 303 297 316 301 283 304 288 280 285 282
142 250 278 290 267 177 200 272 247 242 267 285 295 330 310 288 255 254 271 290 293 302 310 316 315 313 321 331 333 331 319 310 308 301 293 295 299 295 281 281 279 277 279 276
150 205 253 264 285 244 112 289 274 227 251 268 79 299 282 312 326 315 320 321 322 329 336 333 325 327 348 335 335 314 305 303 304 301 286 279 276 283 282 263 271 294 296 285
193 230 264 265 269 126 172 259 301 240 238 210 212 236 283 329 332 321 323 327 344 348 342 329 331 352 351 334 316 307 314 318 318 312 295 279 279 283 272 266 298 298 294 296
175 211 254 227 143 186 223 278 299 288 262 221 250 292 316 327 329 339 343 348 356 351 339 339 350 357 334 318 311 319 327 326 323 320 310 319 308 293 283 234 278 290 296 303
197 218 246 188 201 229 223 241 262 268 288 253 265 284 300 313 323 327 326 335 344 339 331 339 346 346 323 315 321 324 332 326 321 323 318 312 283 275 272 255 263 282 287 293
250 260 258 253 258 264 246 243 267 272 274 240 252 273 284 297 313 322 326 333 339 344 331 326 329 331 317 318 323 324 323 319 318 323 323 318 301 282 262 250 261 268 275 286
250 270 295 268 239 243 254 263 282 294 266 230 238 268 270 288 301 303 314 326 332 319 305 305 317 323 325 329 334 331 322 318 319 319 313 310 303 288 283 260 264 265 260 268
227 220 215 252 245 216 224 241 246 257 283 300 242 255 274 283 286 293 307 320 323 314 305 307 316 320 325 329 335 329 322 319 316 315 311 306 306 318 318 302 303 302 297 294
227 218 217 254 254 205 215 222 218 214 220 241 273 258 265 281 293 305 311 312 303 299 300 305 310 313 319 325 328 317 308 308 307 310 308 306 305 305 314 325 326 324 319 311
226 202 245 238 238 223 208 198 178 189 221 224 252 283 299 296 306 307 301 297 296 300 301 300 301 305 312 319 321 317 311 306 307 297 292 291 291 291 289 296 311 320 325 320
229 218 226 237 230 205 172 147 141 233 271 299 290 279 292 293 292 293 293 301 309 308 304 305 303 304 313 314 313 309 307 302 302 297 288 284 286 289 288 290 293 302 317 323
223 221 216 220 227 215 182 186 208 237 242 259 269 281 278 277 281 289 297 303 302 298 300 301 297 302 308 308 309 306 299 303 311 305 298 297 293 288 288 287 291 297 301 306
178 209 218 232 233 230 220 220 223 228 232 241 255 272 283 292 295 295 295 292 283 282 288 289 292 300 303 300 293 290 292 298 307 310 298 289 284 279 280 281 286 290 293 296
209 214 209 207 212 222 230 226 224 225 229 240 253 263 267 268 274 283 289 298 301 298 291 285 289 294 292 291 288 282 283 287 290 290 292 287 284 279 278 277 280 286 295 303
216 213 211 213 210 207 214 218 222 227 234 231 238 252 257 260 268 277 283 285 284 288 293 290 298 303 293 290 297 275 276 282 286 286 286 290 297 292 286 282 282 283 289 296
212 206 206 211 204 200 212 216 212 224 229 222 232 251 264 266 267 269 269 267 261 263 275 287 290 282 281 283 294 275 270 276 279 282 284 283 283 285 285 283 283 284 286 286
214 206 202 206 216 218 209 202 201 224 234 222 225 239 253 263 262 256 262 275 277 273 276 289 295 285 284 287 291 274 265 268 270 273 278 283 284 284 284 284 284 286 285 287
209 203 205 202 204 228 226 208 207 219 229 235 238 240 250 261 263 261 252 253 270 288 292 273 275 285 291 294 283 268 264 265 268 270 269 273 277 282 285 286 284 284 285 287
210 204 201 201 205 223 239 222 214 215 224 232 235 237 241 248 247 251 272 265 269 286 293 273 285 292 296 299 279 272 270 268 268 270 271 271 272 275 279 283 283 284 283 284
205 202 202 194 174 191 230 237 227 229 231 240 238 234 234 247 256 245 251 280 289 293 290 287 294 298 306 313 289 280 277 274 273 272 272 272 272 274 274 274 277 279 280 281
201 196 188 184 201 220 230 231 230 235 234 242 246 243 235 230 241 256 259 269 283 294 296 292 295 303 321 306 287 281 278 272 272 273 269 270 270 274 276 275 274 276 279 280
199 206 212 214 218 218 211 206 223 234 233 249 258 249 244 243 246 253 256 261 269 284 291 289 289 294 292 281 277 278 277 283 290 288 281 279 275 275 276 277 276 275 277 278
206 211 214 231 228 214 208 210 223 231 227 235 253 251 247 250 247 247 253 260 268 276 281 285 286 282 278 275 275 277 279 278 278 278 278 277 276 275 277 279 278 278 277 276